NOAA 16 DEB, 42354

Orbit data source: Space-Track

NOAA 16 DEB, 42354 is space debris in SSO originally from a launch on Thu, 21 Sep 2000 UTC launched from the Air Force Western Test Range (AFWTR). Debris objects in space refer to the collection of defunct objects orbiting the Earth. Examples of debris include non-operational satellites, rocket bodies, and fragments generated from explosions, collisions, or faulty payload assembly.

Loading next visibility...
Identifier
42354, 2000-055QW
Orbit
SSO
Country
Flag of USUS
Related business
Manufacturer
Unknown
Mission
Spacecraft
Bus & Motor
Unknown
Mass
Unknown
Launch date (UTC)
2000-09-21 (26 years ago)
Launch vehicle
Unknown
Launch site
Air Force Western Test Range (AFWTR)
Object type
Payload
Rocket body
Debris
Shape & HBR
Unknown shape, 0.1 m
Radar Cross Section
Medium (>0.1 m² and <1 m²)

Expand to show TLE details & history
Last TLE update: 11 hours ago

TLE from 11 hours ago
0 NOAA 16 DEB
1 42354U 00055QW  26206.55501780  .00008492  00000-0  40770-2 0  9998
2 42354  99.1433 316.2548 0027466 218.9775 140.9420 14.18939195526005
Epoch: 2026-07-25T13:19Z
TLE epoch observation values (Epoch: 2026-07-25T13:19:13.537Z)
Latitude
-0.00006°
Longitude
173.18278°
Altitude
847.237 km
Speed
7.421 km/s
True Right ascension
21h 05m 01s
True Declination
0° 00' 00"
Sunlit
Object was in full shadow at epoch
Visualization orbit readout
Latitude
Unknown
Longitude
Unknown
Altitude
Unknown
Speed
Unknown
Apparent Right ascension
Unknown
Apparent Declination
Unknown
Sunlit
N/A
Visualization observer readout
Local Sidereal Time
13:50:42
Azimuth
Unknown
Elevation
Unknown
Doppler factor
Unknown
Orbital elements
Apogee altitude
845.911 km
Perigee altitude
806.337 km
Semi-major axis
7,204.261 km
Eccentricity
0.00275
Inclination
99.1433°
RAAN
316.2548°
Arg. of periapsis
218.9775°
True anomaly
141.13979°
Mean anomaly
140.942°
Eccentric anomaly
141.04095°
Mean motion
3.54943 °/min
Orbital period
101.42 mins
BSTAR
0.004077
Loading maneuver chart data...
Computing Atmospheric mass density...

Documentation

Showing up to 5 results
|